Location: *
(40.4000°N, 15.1200°E)
Time: 07:57:38
(UTC+00:00)

Cosmos 220 Rocket - Pass Details

Date: 09 April 2020
Orbit: 574 x 618 km, 74.0° (Epoch: 25 May)

Event Time Altitude Azimuth Distance (km) Brightness Sun altitude
Rises 19:15:37 0° 347° (NNW) 2,844 8.1 -19.2°
Reaches altitude 10° 19:17:57 10° 355° (N) 1,945 7.1 -19.6°
Maximum altitude 19:22:05 42° 67° (ENE) 871 4.5 -20.2°
Enters shadow 19:22:15 42° 73° (ENE) 874 4.5 -20.3°
